Location: Bremen
(53.0793°N, 8.8017°E)
Time: 12:47:47
(UTC+01:00)

ARIANE 6 FM1 Upper Stage - Pass Details

Date: 09 December 2025
Orbit: 522 x 610 km, 62.0° (Epoch: 13 January)

Event Time Altitude Azimuth Distance (km) Brightness Sun altitude
Rises 07:34:22 0° 172° (S) 2,682 6.7 -7.3°
Reaches altitude 10° 07:37:44 10° 142° (SE) 1,781 6.5 -6.9°
Maximum altitude 07:39:23 12° 117° (ESE) 1,633 6.7 -6.7°
Drops below altitude 10° 07:41:01 10° 93° (E) 1,774 6.4 -6.4°
Sets 07:44:21 0° 63° (ENE) 2,661 6.6 -6.0°
